This is the latest recevied weather packets stored in our database for station/object KC7UNY-13. If no packets are shown the sender has not sent any weather packets the latest 10 day(s).
| Time | Temp. | Humidity | Pressure | Rain* | Wind** | Luminosity | Snow |
|---|---|---|---|---|---|---|---|
| 1777721947 | 18.89° C | 36% | 1011.8 hPa | 0 mm | - | 0 W/m² | - |
| 1777721645 | 18.89° C | 36% | 1011.7 hPa | 0 mm | - | 0 W/m² | - |
| 1777721343 | 18.33° C | 36% | 1011.6 hPa | 0 mm | - | 0 W/m² | - |
| 1777721040 | 17.78° C | 38% | 1011.7 hPa | 0 mm | - | 0 W/m² | - |
| 1777720737 | 18.33° C | 38% | 1011.7 hPa | 0 mm | - | 0 W/m² | - |
| 1777720434 | 18.33° C | 38% | 1011.7 hPa | 0 mm | - | 0 W/m² | - |
| 1777720132 | 18.33° C | 38% | 1011.7 hPa | 0 mm | - | 0 W/m² | - |
| 1777719830 | 18.89° C | 37% | 1011.7 hPa | 0 mm | - | 0 W/m² | - |
| 1777719527 | 19.44° C | 36% | 1011.7 hPa | 0 mm | - | 0 W/m² | - |
| 1777719224 | 20° C | 34% | 1011.6 hPa | 0 mm | - | 0 W/m² | - |
| 1777718922 | 20.56° C | 33% | 1011.6 hPa | 0 mm | - | 0 W/m² | - |
| 1777718619 | 20.56° C | 32% | 1011.6 hPa | 0 mm | - | 0 W/m² | - |
| 1777718316 | 21.11° C | 32% | 1011.5 hPa | 0 mm | - | 0 W/m² | - |
| 1777718013 | 20.56° C | 31% | 1011.4 hPa | 0 mm | - | 0 W/m² | - |
| 1777717710 | 20.56° C | 31% | 1011.2 hPa | 0 mm | - | 0 W/m² | - |
| 1777717407 | 21.11° C | 31% | 1011.3 hPa | 0 mm | - | 0 W/m² | - |
| 1777717104 | 20.56° C | 31% | 1011.4 hPa | 0 mm | - | 0 W/m² | - |
| 1777716802 | 20.56° C | 32% | 1011.4 hPa | 0 mm | - | 0 W/m² | - |
| 1777716501 | 20.56° C | 32% | 1011.3 hPa | 0 mm | - | 0 W/m² | - |
| 1777716200 | 20.56° C | 33% | 1011.3 hPa | 0 mm | - | 0 W/m² | - |
| 1777715896 | 20.56° C | 33% | 1011.2 hPa | 0 mm | - | 0 W/m² | - |
| 1777715594 | 20.56° C | 33% | 1011.2 hPa | 0 mm | - | 0 W/m² | - |
| 1777715292 | 20.56° C | 35% | 1011.1 hPa | 0 mm | - | 0 W/m² | - |
| 1777714990 | 20.56° C | 34% | 1011.1 hPa | 0 mm | - | 0 W/m² | - |
| 1777714687 | 20° C | 34% | 1011.2 hPa | 0 mm | - | 0 W/m² | - |
* Rain latest hour (hover to see other rain measurements)
** Current wind speed in m/s (hover to see current wind gust speed)